Home > Weather > Canada > Hay River > Past weeks

Flag for Canada Weather past 2 weeks in Hay River, Northwest Territories, Canada

21 °F

Low clouds.

Feels Like: 21 °F
Forecast: 16 / 19 °F
Wind: 2 mph from Northeast

Location: Hay River

Current Time: Dec 1, 2015 at 10:36:07 AM

Latest Report: Dec 1, 2015 at 10:00 AM

Visibility: 15 mi

Pressure: 29.89 "Hg

Humidity: 93%

Dew point: 19 °F

Location of Hay RiverLocation

Historic Weather in Hay River — Graph


Hay River temperature yesterday

Maximum temperature yesterday: 39 °F (at 4:00 PM)
Minimum temperature yesterday: 19 °F (at 11:47 PM)
Average temperature yesterday: 27 °F

Past Weeks' High & Low Weather Summary

High39 °F (Nov 30, 4:00 PM)100% (Nov 17, 3:00 AM)30.44 "Hg (Nov 17, 3:00 AM)
Low-9 °F (Nov 20, 5:00 AM)45% (Nov 30, 4:00 PM)29.35 "Hg (Nov 21, 5:00 PM)
Average14 °F84%29.92 "Hg
* Reported Nov 16 9:00 AM — Dec 1 9:00 AM, Hay River, Weather by CustomWeather, © 2015

Note: Actual official high and low records may vary slightly from our data, if they occured in-between our weather recording intervals... More about our weather records


Hay River weather history for previous 24 hours

Time TempWeatherWind HumidityBarometerVisibility
9:00 AM
Tue, Dec 1
21 °FLow clouds.3 mph93%29.90 "Hg15 mi
8:00 AM21 °FLow clouds.2 mph93%29.89 "Hg15 mi
7:00 AM21 °FLow clouds.5 mph93%29.90 "Hg15 mi
6:00 AM21 °FLow clouds.2 mph86%29.88 "Hg15 mi
5:00 AM21 °FLow clouds.2 mph93%29.89 "Hg15 mi
4:00 AM19 °FLow clouds.6 mph93%29.88 "Hg15 mi
3:00 AM21 °FLow clouds.3 mph93%29.87 "Hg15 mi
2:00 AM21 °FLow clouds.2 mph93%29.87 "Hg15 mi
1:00 AM19 °FLow clouds.5 mph100%29.86 "Hg15 mi
12:00 AM19 °FLow clouds.5 mph93%29.83 "Hg15 mi
11:47 PM
Mon, Nov 30
19 °FLow clouds.6 mph93%29.82 "Hg15 mi
11:00 PM21 °FOvercast.5 mph93%29.81 "Hg15 mi
10:00 PM21 °FPassing clouds.6 mph93%29.78 "Hg15 mi
9:00 PM23 °FPassing clouds.6 mph86%29.75 "Hg15 mi
8:00 PM25 °FPassing clouds.9 mph86%29.72 "Hg15 mi
7:00 PM27 °FPassing clouds.9 mph80%29.69 "Hg15 mi
5:00 PM37 °FPassing clouds.10 mph48%29.62 "Hg15 mi
4:00 PM39 °FPassing clouds.10 mph45%29.59 "Hg15 mi
3:00 PM37 °FScattered clouds.10 mph48%29.58 "Hg15 mi
2:00 PM34 °FScattered clouds.7 mph56%29.57 "Hg15 mi
1:00 PM32 °FScattered clouds.6 mph55%29.56 "Hg15 mi
12:00 PM30 °FPartly sunny.9 mph55%29.56 "Hg15 mi
11:00 AM32 °FPartly sunny.15 mph47%29.56 "Hg15 mi
10:00 AM23 °FScattered clouds.8 mph63%29.56 "Hg15 mi
Weather by CustomWeather, © 2015

See weather overviewHow to use our weather pages